Content
SEND FEEDBACK

Daily
Averages
Monthly
Summary
United States of America

NEW ULM, MINNESOTA


Home > North America > United States > Minnesota
Elevation: 1005 feet     Latitude: 44 19N     Longitude: 094 28W

WEATHER
 
SELECT A DAY
Number of Records: 467,429;   Date Range: 1/1/95 - 10/20/14
 
SHARE

PRINT THIS DATA

[ ← Previous Day ]
WEATHER ALMANAC - JANUARY 31, 2013
[ Next Day → ]
[ °C ]   °F
Weather ElementAverageHighLow
Temperature-3.8 °F1.4 °F (12:33 am)-9.4 °F (11:33 pm)
Dewpoint-11.7 °F-4 °F (12:33 am)-16.6 °F (10:13 pm)
Humidity68.8 %78 % (12:33 am)65 % (8:33 am)
Barometer30.09 in30.30 in (10:13 pm)29.83 in (12:33 am)
Wind Speed20.7 mph29.9 mph (1:53 pm)
Wind Gust36.8 mph (12:12 pm)
Weather ElementAverage
Visibility8.5 mi
Wind DirectionWNW (305.1 °)

Weather ElementTotal
Precipitation---
Heating Degree Days69 (Base 65)
Averaged from 71 records on January 31, 2013
WEATHER CONDITIONS BREAKOUT
WIND DIRECTION BREAKOUT
WEATHER BY HOUR - JANUARY 31, 2013
[ °C ]   °F
Local TimeTemperatureDewpointHumidityBarometerVisibilityWind DirectionWind SpeedGust SpeedPrecipitationEventsConditions
12:33 AM1.4 °F-4.0 °F78 %29.83 in10.0 miWNW (290°)19.6 mph25.3 mphOvercast
12:53 AM1.4 °F-4.0 °F78 %29.83 in10.0 miWNW (290°)19.6 mphOvercast
1:13 AM1.4 °F-5.8 °F72 %29.84 in10.0 miNW (310°)18.4 mph24.2 mphOvercast
1:33 AM1.4 °F-5.8 °F72 %29.84 in10.0 miWNW (300°)16.1 mphOvercast
1:53 AM-0.4 °F-5.8 °F78 %29.85 in10.0 miWNW (300°)18.4 mphOvercast
2:13 AM-0.4 °F-5.8 °F78 %29.86 in10.0 miWNW (300°)13.8 mphOvercast
2:33 AM-0.4 °F-7.6 °F72 %29.86 in10.0 miNW (310°)13.8 mphOvercast
2:53 AM-0.4 °F-7.6 °F72 %29.86 in10.0 miNW (310°)20.7 mph25.3 mphOvercast
3:12 AM-0.4 °F-7.6 °F72 %29.86 in7.0 miWNW (300°)16.1 mph23.0 mphOvercast
3:33 AM-0.4 °F-7.6 °F72 %29.87 in10.0 miWNW (300°)13.8 mph27.6 mphOvercast
3:53 AM-0.4 °F-7.6 °F72 %29.88 in10.0 miNW (310°)17.3 mphOvercast
4:12 AM-2.2 °F-9.4 °F71 %29.88 in7.0 miWNW (300°)20.7 mphOvercast
4:33 AM-2.2 °F-9.4 °F71 %29.89 in7.0 miWNW (300°)17.3 mphMostly Cloudy
4:53 AM-2.2 °F-9.4 °F71 %29.90 in10.0 miWNW (300°)20.7 mphMostly Cloudy
5:12 AM-2.2 °F-9.4 °F71 %29.91 in10.0 miNW (310°)19.6 mph31.1 mphOvercast
5:33 AM-2.2 °F-9.4 °F71 %29.91 in10.0 miWNW (300°)19.6 mphOvercast
5:53 AM-2.2 °F-9.4 °F71 %29.92 in10.0 miWNW (300°)21.9 mphOvercast
6:12 AM-2.2 °F-9.4 °F71 %29.93 in10.0 miWNW (300°)18.4 mph28.8 mphOvercast
6:33 AM-2.2 °F-9.4 °F71 %29.93 in10.0 miNW (310°)19.6 mphOvercast
6:53 AM-2.2 °F-11.2 °F66 %29.94 in10.0 miNW (310°)21.9 mph26.5 mphOvercast
7:12 AM-4.0 °F-11.2 °F71 %29.95 in10.0 miWNW (300°)24.2 mph28.8 mphOvercast
7:33 AM-4.0 °F-11.2 °F71 %29.96 in10.0 miNW (310°)21.9 mph26.5 mphOvercast
7:53 AM-5.8 °F-13.0 °F71 %29.98 in10.0 miNW (310°)24.2 mph34.5 mphMostly Cloudy
8:12 AM-5.8 °F-13.0 °F71 %29.99 in10.0 miWNW (300°)21.9 mphMostly Cloudy
8:33 AM-5.8 °F-14.8 °F65 %30.00 in10.0 miNW (310°)25.3 mphMostly Cloudy
8:53 AM-5.8 °F-14.8 °F65 %30.02 in10.0 miWNW (300°)20.7 mph28.8 mphScattered Clouds
9:17 AM-5.8 °F-14.8 °F65 %30.03 in10.0 miNW (310°)23.0 mph26.5 mphClear
9:33 AM-5.8 °F-14.8 °F65 %30.04 in7.0 miNW (310°)25.3 mph32.2 mphScattered Clouds
9:53 AM-5.8 °F-14.8 °F65 %30.05 in5.0 miNW (310°)27.6 mph32.2 mphHaze
10:12 AM-5.8 °F-14.8 °F65 %30.06 in4.0 miNW (320°)25.3 mph29.9 mphHaze
10:33 AM-5.8 °F-13.0 °F71 %30.08 in1.8 miNW (310°)26.5 mph32.2 mphHaze
10:53 AM-5.8 °F-14.8 °F65 %30.08 in2.0 miNW (310°)28.8 mph35.7 mphHaze
11:12 AM-5.8 °F-11.2 °F77 %30.09 in1.8 miWNW (300°)25.3 mph32.2 mphHaze
11:33 AM-4.0 °F-11.2 °F71 %30.10 in1.2 miNW (310°)21.9 mph29.9 mphHaze
11:53 AM-4.0 °F-11.2 °F71 %30.10 in2.5 miNW (310°)27.6 mph33.4 mphHaze
12:12 PM-2.2 °F-11.2 °F66 %30.10 in1.8 miNW (310°)28.8 mph36.8 mphHaze
12:33 PM-2.2 °F-11.2 °F66 %30.11 in1.8 miNW (310°)25.3 mph33.4 mphHaze
12:53 PM-2.2 °F-11.2 °F66 %30.12 in3.0 miNW (320°)27.6 mph34.5 mphHaze
1:13 PM-2.2 °F-11.2 °F66 %30.12 in4.0 miWNW (300°)23.0 mph34.5 mphHaze
1:33 PM-2.2 °F-11.2 °F66 %30.12 in4.0 miNW (320°)27.6 mph34.5 mphHaze
1:53 PM-2.2 °F-11.2 °F66 %30.13 in5.0 miNW (310°)29.9 mph35.7 mphHaze
2:13 PM-2.2 °F-11.2 °F66 %30.14 in10.0 miNW (310°)27.6 mph33.4 mphClear
2:33 PM-2.2 °F-11.2 °F66 %30.15 in10.0 miNW (310°)23.0 mph35.7 mphClear
2:53 PM-2.2 °F-11.2 °F66 %30.16 in10.0 miNW (310°)23.0 mph35.7 mphClear
3:13 PM-2.2 °F-9.4 °F71 %30.16 in10.0 miNW (310°)23.0 mph34.5 mphClear
3:33 PM-0.4 °F-9.4 °F66 %30.17 in10.0 miNW (310°)28.8 mph34.5 mphClear
3:53 PM-2.2 °F-11.2 °F66 %30.18 in10.0 miNW (310°)24.2 mph33.4 mphClear
4:13 PM-2.2 °F-11.2 °F66 %30.19 in10.0 miNW (310°)25.3 mphClear
4:33 PM-2.2 °F-11.2 °F66 %30.20 in10.0 miNW (310°)24.2 mph31.1 mphClear
4:53 PM-2.2 °F-11.2 °F66 %30.20 in10.0 miNW (310°)23.0 mphClear
5:13 PM-4.0 °F-11.2 °F71 %30.21 in10.0 miNW (310°)17.3 mphClear
5:33 PM-5.8 °F-13.0 °F71 %30.22 in10.0 miNW (310°)20.7 mph26.5 mphClear
5:53 PM-5.8 °F-13.0 °F71 %30.23 in10.0 miNW (310°)20.7 mphClear
6:13 PM-5.8 °F-14.8 °F65 %30.24 in10.0 miNW (310°)15.0 mphClear
6:33 PM-5.8 °F-14.8 °F65 %30.24 in10.0 miNW (310°)20.7 mph25.3 mphClear
6:53 PM-5.8 °F-14.8 °F65 %30.25 in10.0 miWNW (300°)19.6 mph26.5 mphClear
7:13 PM-5.8 °F-14.8 °F65 %30.26 in10.0 miNW (310°)18.4 mph24.2 mphClear
7:33 PM-5.8 °F-14.8 °F65 %30.26 in10.0 miWNW (300°)17.3 mph23.0 mphClear
7:52 PM-5.8 °F-14.8 °F65 %30.27 in10.0 miWNW (300°)18.4 mph24.2 mphClear
8:13 PM-5.8 °F-14.8 °F65 %30.27 in10.0 miNW (310°)20.7 mph24.2 mphClear
8:33 PM-5.8 °F-14.8 °F65 %30.28 in10.0 miWNW (300°)18.4 mphClear
8:52 PM-5.8 °F-14.8 °F65 %30.28 in10.0 miNW (310°)18.4 mphClear
9:13 PM-7.6 °F-14.8 °F71 %30.28 in10.0 miWNW (300°)15.0 mph19.6 mphClear
9:33 PM-7.6 °F-14.8 °F71 %30.29 in10.0 miWNW (300°)12.7 mphClear
9:52 PM-7.6 °F-14.8 °F71 %30.29 in10.0 miWNW (290°)11.5 mphClear
10:13 PM-7.6 °F-16.6 °F65 %30.30 in10.0 miWNW (300°)17.3 mph21.9 mphClear
10:33 PM-7.6 °F-16.6 °F65 %30.30 in10.0 miWNW (300°)16.1 mph23.0 mphClear
10:52 PM-7.6 °F-16.6 °F65 %30.30 in10.0 miWNW (290°)11.5 mphClear
11:13 PM-7.6 °F-16.6 °F65 %30.30 in10.0 miWNW (290°)12.7 mphClear
11:33 PM-9.4 °F-16.6 °F71 %30.30 in10.0 miWNW (290°)11.5 mphClear
11:52 PM-9.4 °F-16.6 °F71 %30.30 in10.0 miWNW (290°)11.5 mphClear
Hourly data recorded from KULM, located miles away from New Ulm, Minnesota







STORIES FROM OUR PARTNERS